• In Romania
  • List of Countries
  • For 7 days
  • Water Temperature
  • Satellite Maps
  • Weather Map
  • Weather Widgets
  • user-avatar
    Login

    Hourly Weather Berberati

    Today, 18 December, Monday

    Time Temperature Precipitation Wind Pressure Humidity
    00:00 +24°C° 0 mm 0 mps 712 mmHg 47%
    01:00 +23°C° 0 mm 0 mps 712 mmHg 49%
    02:00 +23°C° 0 mm 0 mps 712 mmHg 52%
    03:00 +22°C° 0 mm 0 mps 712 mmHg 54%
    04:00 +24°C° 0 mm 1 mps 712 mmHg 56%
    05:00 +24°C° 0 mm 1 mps 712 mmHg 56%
    06:00 +25°C° 0 mm 1 mps 713 mmHg 56%
    07:00 +25°C° 0 mm 1 mps 713 mmHg 56%
    08:00 +28°C° 0 mm 1 mps 713 mmHg 50%
    09:00 +31°C° 0 mm 1 mps 714 mmHg 43%
    10:00 +35°C° 0 mm 2 mps 714 mmHg 36%
    11:00 +36°C° 0 mm 1 mps 713 mmHg 31%
    12:00 +39°C° 0 mm 1 mps 713 mmHg 25%
    13:00 +41°C° 0 mm 1 mps 712 mmHg 19%
    14:00 +40°C° 0 mm 1 mps 711 mmHg 19%
    15:00 +40°C° 0 mm 1 mps 710 mmHg 19%
    16:00 +39°C° 0 mm 1 mps 710 mmHg 18%
    17:00 +35°C° 0 mm 1 mps 710 mmHg 22%
    18:00 +33°C° 0 mm 1 mps 710 mmHg 25%
    19:00 +28°C° 0 mm 0 mps 710 mmHg 29%
    20:00 +27°C° 0 mm 0 mps 710 mmHg 31%
    21:00 +26°C° 0 mm 0 mps 710 mmHg 33%
    22:00 +25°C° 0 mm 0 mps 711 mmHg 34%
    23:00 +24°C° 0 mm 0 mps 711 mmHg 36%

    Tomorrow, 19 December, Tuesday

    Time Temperature Precipitation Wind Pressure Humidity
    00:00 +24°C° 0 mm 0 mps 711 mmHg 38%
    01:00 +23°C° 0 mm 0 mps 711 mmHg 40%
    02:00 +23°C° 0 mm 0 mps 711 mmHg 42%
    03:00 +24°C° 0 mm 1 mps 711 mmHg 44%
    04:00 +24°C° 0 mm 1 mps 711 mmHg 46%
    05:00 +24°C° 0 mm 1 mps 711 mmHg 48%
    06:00 +25°C° 0 mm 1 mps 712 mmHg 50%
    07:00 +25°C° 0 mm 2 mps 712 mmHg 52%
    08:00 +28°C° 0 mm 2 mps 712 mmHg 47%
    09:00 +31°C° 0 mm 2 mps 713 mmHg 43%
    10:00 +34°C° 0 mm 2 mps 713 mmHg 38%
    11:00 +37°C° 0 mm 2 mps 712 mmHg 32%
    12:00 +39°C° 0 mm 1 mps 712 mmHg 25%
    13:00 +42°C° 0 mm 1 mps 711 mmHg 19%
    14:00 +41°C° 0 mm 1 mps 711 mmHg 18%
    15:00 +40°C° 0 mm 1 mps 710 mmHg 17%
    16:00 +40°C° 0 mm 1 mps 709 mmHg 17%
    17:00 +36°C° 0 mm 1 mps 709 mmHg 20%
    18:00 +33°C° 0 mm 1 mps 709 mmHg 24%
    19:00 +30°C° 0 mm 1 mps 710 mmHg 27%
    20:00 +29°C° 0 mm 1 mps 710 mmHg 31%
    21:00 +28°C° 0 mm 1 mps 711 mmHg 35%
    22:00 +25°C° 0 mm 0 mps 711 mmHg 39%
    23:00 +27°C° 0 mm 1 mps 711 mmHg 44%

    Day after tomorrow, 20 December, Wednesday

    Time Temperature Precipitation Wind Pressure Humidity
    00:00 +26°C° 0 mm 1 mps 711 mmHg 49%
    01:00 +25°C° 0 mm 1 mps 711 mmHg 54%
    02:00 +25°C° 0 mm 1 mps 711 mmHg 60%
    03:00 +25°C° 0 mm 1 mps 711 mmHg 66%
    04:00 +25°C° 0 mm 1 mps 710 mmHg 72%
    05:00 +25°C° 0 mm 1 mps 711 mmHg 72%
    06:00 +25°C° 0 mm 1 mps 712 mmHg 73%
    07:00 +26°C° 0 mm 1 mps 712 mmHg 73%
    08:00 +28°C° 0 mm 2 mps 713 mmHg 63%
    09:00 +30°C° 0 mm 2 mps 713 mmHg 54%
    10:00 +34°C° 0 mm 2 mps 714 mmHg 44%
    11:00 +36°C° 0 mm 2 mps 713 mmHg 36%
    12:00 +37°C° 0 mm 1 mps 712 mmHg 28%
    13:00 +40°C° 0 mm 1 mps 711 mmHg 21%
    14:00 +40°C° 0 mm 1 mps 711 mmHg 20%
    15:00 +39°C° 0 mm 1 mps 710 mmHg 19%
    16:00 +39°C° 0 mm 1 mps 709 mmHg 18%
    17:00 +35°C° 0 mm 1 mps 709 mmHg 22%
    18:00 +33°C° 0 mm 1 mps 710 mmHg 25%
    19:00 +30°C° 0 mm 1 mps 710 mmHg 29%
    20:00 +29°C° 0 mm 1 mps 710 mmHg 34%
    21:00 +28°C° 0 mm 1 mps 711 mmHg 38%
    22:00 +27°C° 0 mm 1 mps 712 mmHg 42%
    23:00 +26°C° 0 mm 1 mps 712 mmHg 51%

    21 December, Thursday

    Time Temperature Precipitation Wind Pressure Humidity
    00:00 +26°C° 0 mm 1 mps 711 mmHg 59%
    01:00 +25°C° 0 mm 1 mps 711 mmHg 67%
    02:00 +25°C° 0 mm 1 mps 711 mmHg 72%
    03:00 +24°C° 0 mm 1 mps 711 mmHg 76%
    04:00 +24°C° 0 mm 1 mps 712 mmHg 81%
    05:00 +24°C° 0.1 mm 1 mps 712 mmHg 80%
    06:00 +25°C° 0.1 mm 2 mps 713 mmHg 78%
    07:00 +25°C° 0.1 mm 2 mps 713 mmHg 77%
    08:00 +28°C° 0.2 mm 2 mps 714 mmHg 68%
    09:00 +30°C° 0.2 mm 2 mps 714 mmHg 59%
    10:00 +32°C° 0.2 mm 2 mps 714 mmHg 50%
    11:00 +34°C° 0 mm 1 mps 713 mmHg 43%
    12:00 +37°C° 0 mm 1 mps 713 mmHg 36%
    13:00 +40°C° 0 mm 1 mps 712 mmHg 29%
    14:00 +37°C° 0 mm 1 mps 711 mmHg 30%
    15:00 +36°C° 0 mm 1 mps 710 mmHg 32%
    16:00 +33°C° 0 mm 0 mps 710 mmHg 33%
    17:00 +33°C° 0 mm 1 mps 710 mmHg 37%
    18:00 +32°C° 0 mm 1 mps 710 mmHg 41%
    19:00 +30°C° 0 mm 1 mps 711 mmHg 46%
    20:00 +29°C° 0 mm 1 mps 711 mmHg 51%
    21:00 +28°C° 0 mm 1 mps 711 mmHg 56%
    22:00 +27°C° 0 mm 1 mps 712 mmHg 61%
    23:00 +27°C° 0 mm 1 mps 712 mmHg 65%

    22 December, Friday

    Time Temperature Precipitation Wind Pressure Humidity
    00:00 +26°C° 0 mm 1 mps 712 mmHg 69%
    01:00 +23°C° 0 mm 0 mps 712 mmHg 72%
    02:00 +25°C° 0.3 mm 1 mps 712 mmHg 75%
    03:00 +25°C° 0.3 mm 1 mps 712 mmHg 79%
    04:00 +24°C° 0.3 mm 1 mps 712 mmHg 82%
    05:00 +24°C° 0.5 mm 1 mps 713 mmHg 83%
    06:00 +24°C° 0.5 mm 1 mps 713 mmHg 85%
    07:00 +24°C° 0.5 mm 1 mps 714 mmHg 87%
    08:00 +26°C° 0 mm 1 mps 714 mmHg 80%
    09:00 +27°C° 0 mm 2 mps 714 mmHg 73%
    10:00 +29°C° 0 mm 2 mps 714 mmHg 67%
    11:00 +31°C° 0 mm 2 mps 713 mmHg 57%
    12:00 +34°C° 0 mm 2 mps 712 mmHg 47%
    13:00 +37°C° 0 mm 2 mps 712 mmHg 37%
    14:00 +36°C° 0 mm 1 mps 711 mmHg 37%
    15:00 +35°C° 0 mm 1 mps 711 mmHg 36%
    16:00 +35°C° 0 mm 1 mps 710 mmHg 36%
    17:00 +34°C° 0 mm 1 mps 710 mmHg 40%
    18:00 +32°C° 0 mm 1 mps 711 mmHg 44%
    19:00 +30°C° 0 mm 1 mps 711 mmHg 48%
    20:00 +29°C° 0.1 mm 1 mps 711 mmHg 53%
    21:00 +28°C° 0.1 mm 1 mps 711 mmHg 58%
    22:00 +27°C° 0.1 mm 1 mps 712 mmHg 62%
    23:00 +27°C° 0.1 mm 1 mps 711 mmHg 67%

    23 December, Saturday

    Time Temperature Precipitation Wind Pressure Humidity
    00:00 +26°C° 0.1 mm 1 mps 711 mmHg 71%
    01:00 +25°C° 0.1 mm 1 mps 711 mmHg 75%
    02:00 +25°C° 0 mm 1 mps 711 mmHg 77%
    03:00 +25°C° 0 mm 1 mps 711 mmHg 78%
    04:00 +23°C° 0 mm 0 mps 711 mmHg 80%
    05:00 +25°C° 0.2 mm 1 mps 711 mmHg 79%
    06:00 +25°C° 0.2 mm 1 mps 712 mmHg 78%
    07:00 +25°C° 0.2 mm 2 mps 712 mmHg 77%
    08:00 +26°C° 0 mm 2 mps 713 mmHg 74%
    09:00 +27°C° 0 mm 2 mps 713 mmHg 70%
    10:00 +28°C° 0 mm 2 mps 713 mmHg 66%
    11:00 +30°C° 0 mm 2 mps 712 mmHg 58%
    12:00 +34°C° 0 mm 2 mps 712 mmHg 49%
    13:00 +36°C° 0 mm 2 mps 711 mmHg 41%
    14:00 +35°C° 0 mm 1 mps 710 mmHg 40%
    15:00 +35°C° 0 mm 1 mps 710 mmHg 39%
    16:00 +33°C° 0 mm 0 mps 709 mmHg 38%
    17:00 +32°C° 0 mm 0 mps 709 mmHg 43%
    18:00 +32°C° 0 mm 1 mps 710 mmHg 48%
    19:00 +30°C° 0 mm 1 mps 710 mmHg 53%
    20:00 +29°C° 0 mm 1 mps 710 mmHg 57%
    21:00 +28°C° 0 mm 1 mps 711 mmHg 61%
    22:00 +28°C° 0 mm 1 mps 711 mmHg 65%
    23:00 +27°C° 0 mm 1 mps 711 mmHg 68%
    Show more